contact:dominique.lefevre@mio.osupytheas.fr, maurice.libes@osupytheas.fr, didier.mallarino@osupytheas.fr
Project:EMSO http://www.emso-fr.org/EMSO-France
Depth: 2436.0 m
Title:EMSO Ligure Ouest : Data MII capteur AQUADOPP
Date,Latitude,Longitude,X_East,Y_North,Z_Up,Amplitude_X,Amplitude_Y,Amplitude_Z,Batterie,SoundSpeed,Heading,Pitch,Roll,Pressure,TIS,Speed,Direction
, degrees North, degrees East, m.s-1, m.s-1,m.s-1, 1, 1, 1, Volt, m.s-1, degree, degree, degree, dbar, degree_C, m.s-1, degree
2022-04-24T00:04:03,42.805,6.029,-0.034,0.002,0.031,103.0,105.0,102.0,13.3,1505.2,328.7,-0.8,1.8,2470.791,13.28,0.034,273.4
2022-04-24T00:07:03,42.805,6.029,-0.032,-0.015,-0.011,103.0,103.0,100.0,13.4,1505.2,329.3,-0.8,1.8,2470.758,13.28,0.035,244.9
2022-04-24T00:10:03,42.805,6.029,-0.017,-0.003,-0.013,103.0,103.0,104.0,13.3,1505.2,329.1,-0.8,1.8,2470.786,13.28,0.017,260.0
2022-04-24T00:13:03,42.805,6.029,-0.012,-0.006,-0.04,104.0,103.0,102.0,13.3,1505.2,328.3,-0.7,1.8,2470.782,13.29,0.013,243.4
2022-04-24T00:16:03,42.805,6.029,-0.037,-0.014,0.003,104.0,103.0,101.0,13.4,1505.2,323.1,-0.8,1.8,2470.74,13.29,0.039,249.3
2022-04-24T00:19:03,42.805,6.029,-0.018,-0.01,0.025,104.0,103.0,102.0,13.4,1505.2,326.9,-0.8,1.8,2470.758,13.29,0.02,240.9
2022-04-24T00:22:03,42.805,6.029,-0.015,-0.009,-0.008,102.0,103.0,102.0,13.4,1505.2,321.7,-0.7,1.9,2470.74,13.29,0.017,239.0
2022-04-24T00:25:03,42.805,6.029,-0.018,0.0,0.001,104.0,103.0,102.0,13.4,1505.2,324.4,-0.7,1.8,2470.701,13.29,0.018,270.0
2022-04-24T00:28:03,42.805,6.029,-0.024,-0.003,0.01,103.0,104.0,102.0,13.4,1505.2,323.0,-0.8,1.8,2470.762,13.29,0.024,262.9
2022-04-24T00:31:03,42.805,6.029,-0.014,-0.006,0.0,104.0,102.0,100.0,13.3,1505.2,332.2,-0.8,1.8,2470.743,13.29,0.015,246.8
2022-04-24T00:34:03,42.805,6.029,-0.022,-0.001,0.028,103.0,104.0,101.0,13.4,1505.2,324.6,-0.7,1.8,2470.773,13.29,0.022,267.4
2022-04-24T00:37:03,42.805,6.029,-0.029,-0.007,-0.012,103.0,103.0,101.0,13.4,1505.2,322.2,-0.7,1.8,2470.777,13.29,0.029,256.4
2022-04-24T00:40:03,42.805,6.029,-0.038,-0.001,0.0,101.0,103.0,102.0,13.4,1505.2,332.6,-0.8,1.8,2470.843,13.29,0.038,268.5
2022-04-24T00:43:03,42.805,6.029,-0.01,-0.012,-0.004,103.0,103.0,101.0,13.4,1505.2,331.9,-0.7,1.8,2470.812,13.29,0.015,219.8
2022-04-24T00:46:03,42.805,6.029,-0.015,-0.001,-0.023,104.0,103.0,101.0,13.3,1505.2,331.8,-0.7,1.8,2470.818,13.29,0.015,266.2
2022-04-24T00:49:03,42.805,6.029,-0.029,-0.019,0.011,103.0,103.0,101.0,13.4,1505.2,324.5,-0.8,1.8,2470.804,13.29,0.034,236.8
2022-04-24T00:52:03,42.805,6.029,-0.041,0.005,-0.006,103.0,102.0,102.0,13.4,1505.2,323.4,-0.7,1.8,2470.862,13.29,0.041,277.0
2022-04-24T00:55:03,42.805,6.029,-0.044,0.003,-0.014,101.0,103.0,102.0,13.4,1505.2,328.4,-0.7,1.8,2470.856,13.29,0.044,273.9
2022-04-24T00:58:03,42.805,6.029,-0.023,0.003,0.001,104.0,102.0,101.0,13.4,1505.2,326.0,-0.8,1.8,2470.875,13.29,0.023,277.4
2022-04-24T01:04:03,42.805,6.029,-0.014,0.008,-0.027,105.0,105.0,104.0,13.4,1505.2,325.5,-0.7,1.8,2470.913,13.29,0.016,299.7
2022-04-24T01:07:03,42.805,6.029,-0.019,-0.018,-0.02,102.0,102.0,101.0,13.4,1505.2,324.1,-0.7,1.8,2470.868,13.29,0.026,226.5
2022-04-24T01:10:03,42.805,6.029,-0.013,0.0,-0.002,103.0,104.0,102.0,13.4,1505.2,325.0,-0.8,1.8,2470.891,13.29,0.013,270.0
2022-04-24T01:13:03,42.805,6.029,-0.027,-0.002,0.011,102.0,103.0,101.0,13.4,1505.2,324.6,-0.7,1.8,2470.835,13.29,0.027,265.8
2022-04-24T01:16:03,42.805,6.029,-0.027,0.003,0.007,104.0,103.0,101.0,13.4,1505.2,329.1,-0.7,1.8,2470.849,13.29,0.027,276.3
2022-04-24T01:19:03,42.805,6.029,-0.001,0.002,0.004,104.0,102.0,102.0,13.4,1505.2,331.3,-0.8,1.9,2470.828,13.29,0.002,333.4
2022-04-24T01:22:03,42.805,6.029,-0.032,-0.016,0.021,104.0,105.0,102.0,13.3,1505.2,325.4,-0.7,1.8,2470.792,13.29,0.035,243.4
2022-04-24T01:25:03,42.805,6.029,-0.017,-0.019,-0.014,103.0,103.0,102.0,13.4,1505.2,331.1,-0.8,1.8,2470.767,13.29,0.025,221.8
2022-04-24T01:28:03,42.805,6.029,0.0,-0.016,-0.002,105.0,102.0,101.0,13.3,1505.2,330.4,-0.7,1.8,2470.794,13.29,0.016,180.0
2022-04-24T01:31:03,42.805,6.029,-0.007,0.002,0.015,102.0,103.0,102.0,13.3,1505.2,323.9,-0.8,1.8,2470.73,13.29,0.007,285.9
2022-04-24T01:34:03,42.805,6.029,-0.024,-0.008,-0.023,102.0,104.0,105.0,13.3,1505.2,323.7,-0.8,1.8,2470.808,13.29,0.025,251.6
2022-04-24T01:37:03,42.805,6.029,-0.02,-0.01,0.0,103.0,104.0,102.0,13.4,1505.2,325.2,-0.8,1.8,2470.745,13.29,0.022,243.4
2022-04-24T01:40:03,42.805,6.029,-0.029,0.003,0.026,103.0,103.0,102.0,13.4,1505.2,326.0,-0.8,1.8,2470.744,13.29,0.029,275.9
2022-04-24T01:43:03,42.805,6.029,-0.028,-0.012,-0.008,105.0,101.0,101.0,13.3,1505.2,327.0,-0.8,1.8,2470.747,13.29,0.03,246.8
2022-04-24T01:46:03,42.805,6.029,-0.027,-0.009,-0.005,103.0,106.0,104.0,13.3,1505.2,321.7,-0.8,1.8,2470.753,13.29,0.028,251.6
2022-04-24T01:49:03,42.805,6.029,-0.008,0.0,0.005,105.0,103.0,101.0,13.3,1505.2,330.5,-0.7,1.8,2470.726,13.29,0.008,270.0
2022-04-24T01:52:03,42.805,6.029,-0.023,-0.002,0.001,103.0,102.0,101.0,13.4,1505.2,326.7,-0.7,1.8,2470.796,13.29,0.023,265.0
2022-04-24T01:55:03,42.805,6.029,-0.033,0.012,0.036,104.0,102.0,102.0,13.4,1505.2,330.3,-0.8,1.8,2470.775,13.29,0.035,290.0
2022-04-24T01:58:03,42.805,6.029,-0.028,0.008,0.004,103.0,103.0,101.0,13.4,1505.2,325.7,-0.7,1.8,2470.841,13.29,0.029,285.9
2022-04-24T02:04:03,42.805,6.029,-0.017,-0.006,-0.009,103.0,102.0,102.0,13.3,1505.2,322.1,-0.8,1.8,2470.834,13.29,0.018,250.6
2022-04-24T02:07:03,42.805,6.029,-0.026,-0.009,-0.009,104.0,102.0,101.0,13.4,1505.2,324.6,-0.8,1.8,2470.862,13.29,0.027,250.9
2022-04-24T02:10:03,42.805,6.029,-0.027,-0.014,0.006,104.0,104.0,102.0,13.4,1505.2,329.7,-0.8,1.8,2470.863,13.29,0.03,242.6
2022-04-24T02:13:03,42.805,6.029,-0.036,0.003,-0.039,103.0,102.0,101.0,13.4,1505.2,330.5,-0.7,1.8,2470.907,13.29,0.036,274.8
2022-04-24T02:16:03,42.805,6.029,-0.019,-0.019,0.018,102.0,104.0,101.0,13.4,1505.2,329.0,-0.8,1.8,2470.905,13.29,0.026,225.0
2022-04-24T02:19:03,42.805,6.029,-0.01,-0.001,-0.027,103.0,104.0,102.0,13.4,1505.2,324.9,-0.7,1.8,2470.887,13.29,0.01,264.3
2022-04-24T02:22:03,42.805,6.029,-0.018,-0.031,-0.022,102.0,103.0,101.0,13.4,1505.2,327.4,-0.8,1.8,2470.908,13.29,0.035,210.1
2022-04-24T02:25:03,42.805,6.029,-0.027,0.0,-0.002,104.0,103.0,100.0,13.4,1505.2,328.3,-0.7,1.8,2470.832,13.29,0.026,270.0
2022-04-24T02:28:03,42.805,6.029,-0.016,0.002,0.003,103.0,104.0,103.0,13.4,1505.2,323.9,-0.7,1.8,2470.842,13.29,0.016,277.1
2022-04-24T02:31:03,42.805,6.029,-0.017,-0.004,0.021,105.0,102.0,101.0,13.4,1505.2,329.3,-0.7,1.8,2470.84,13.29,0.017,256.8
2022-04-24T02:34:03,42.805,6.029,-0.02,-0.009,-0.007,104.0,103.0,101.0,13.4,1505.2,326.0,-0.7,1.8,2470.82,13.29,0.021,245.8
2022-04-24T02:37:03,42.805,6.029,-0.02,0.002,-0.005,103.0,102.0,101.0,13.4,1505.2,325.8,-0.8,1.8,2470.854,13.29,0.02,275.7
2022-04-24T02:40:03,42.805,6.029,-0.036,-0.006,0.0,104.0,103.0,100.0,13.4,1505.2,331.1,-0.8,1.8,2470.786,13.29,0.036,260.5
2022-04-24T02:43:03,42.805,6.029,-0.006,-0.017,0.014,105.0,101.0,101.0,13.4,1505.2,329.4,-0.8,1.8,2470.748,13.29,0.018,199.4
2022-04-24T02:46:03,42.805,6.029,-0.02,-0.011,-0.008,103.0,104.0,101.0,13.3,1505.2,325.9,-0.8,1.8,2470.755,13.29,0.022,241.2
2022-04-24T02:49:03,42.805,6.029,-0.012,-0.005,0.039,103.0,103.0,102.0,13.4,1505.2,324.5,-0.7,1.8,2470.729,13.29,0.013,247.4
2022-04-24T02:52:03,42.805,6.029,-0.035,0.006,0.019,103.0,102.0,100.0,13.4,1505.2,328.9,-0.7,1.8,2470.771,13.29,0.035,279.7
2022-04-24T02:55:03,42.805,6.029,-0.026,-0.005,-0.025,103.0,103.0,100.0,13.4,1505.2,325.6,-0.8,1.8,2470.729,13.29,0.026,259.1
2022-04-24T02:58:03,42.805,6.029,-0.019,-0.004,-0.001,101.0,103.0,102.0,13.4,1505.2,323.4,-0.7,1.8,2470.755,13.29,0.019,258.1
2022-04-24T03:04:03,42.805,6.029,-0.015,-0.018,-0.009,103.0,101.0,103.0,13.4,1505.2,325.4,-0.8,1.8,2470.75,13.29,0.023,219.8
2022-04-24T03:07:03,42.805,6.029,-0.023,-0.002,-0.006,106.0,103.0,103.0,13.4,1505.2,324.8,-0.8,1.8,2470.768,13.29,0.023,265.0
2022-04-24T03:10:03,42.805,6.029,-0.013,-0.015,-0.01,103.0,102.0,103.0,13.4,1505.2,321.7,-0.8,1.8,2470.765,13.29,0.019,220.9
2022-04-24T03:13:03,42.805,6.029,-0.017,0.007,0.044,104.0,103.0,101.0,13.3,1505.2,324.4,-0.7,1.8,2470.76,13.29,0.018,292.4
2022-04-24T03:16:03,42.805,6.029,-0.036,0.0,-0.004,102.0,104.0,101.0,13.3,1505.2,324.3,-0.7,1.8,2470.772,13.29,0.036,270.0
2022-04-24T03:19:03,42.805,6.029,-0.01,-0.017,-0.01,103.0,103.0,100.0,13.3,1505.2,327.9,-0.8,1.8,2470.806,13.29,0.019,210.5
2022-04-24T03:22:03,42.805,6.029,-0.018,-0.005,-0.015,104.0,103.0,102.0,13.4,1505.2,330.8,-0.7,1.8,2470.749,13.29,0.018,254.5
2022-04-24T03:25:03,42.805,6.029,-0.019,-0.012,0.013,103.0,103.0,100.0,13.4,1505.2,322.4,-0.8,1.8,2470.807,13.29,0.022,237.7
2022-04-24T03:28:03,42.805,6.029,-0.045,0.006,0.009,104.0,103.0,101.0,13.4,1505.2,331.3,-0.8,1.8,2470.819,13.29,0.045,277.6
2022-04-24T03:31:03,42.805,6.029,-0.028,0.006,-0.008,102.0,104.0,102.0,13.3,1505.2,328.1,-0.8,1.8,2470.807,13.29,0.028,282.1
2022-04-24T03:34:03,42.805,6.029,-0.037,-0.015,-0.003,103.0,103.0,102.0,13.4,1505.2,330.9,-0.8,1.8,2470.8,13.29,0.039,247.9
2022-04-24T03:37:03,42.805,6.029,-0.041,0.0,-0.035,103.0,103.0,101.0,13.4,1505.2,329.9,-0.7,1.8,2470.833,13.29,0.041,270.0
2022-04-24T03:40:03,42.805,6.029,-0.024,-0.003,0.024,103.0,102.0,102.0,13.3,1505.2,327.4,-0.8,1.8,2470.848,13.29,0.024,262.9
2022-04-24T03:43:03,42.805,6.029,-0.025,-0.003,-0.01,104.0,102.0,101.0,13.3,1505.2,327.9,-0.8,1.8,2470.822,13.29,0.025,263.2
2022-04-24T03:46:03,42.805,6.029,-0.019,0.0,-0.006,102.0,103.0,101.0,13.4,1505.2,327.0,-0.8,1.8,2470.874,13.29,0.019,270.0
2022-04-24T03:49:03,42.805,6.029,-0.044,0.003,-0.015,103.0,103.0,101.0,13.4,1505.2,329.9,-0.8,1.8,2470.857,13.29,0.044,273.9
2022-04-24T03:52:03,42.805,6.029,-0.026,-0.015,-0.02,102.0,108.0,102.0,13.4,1505.2,321.4,-0.8,1.8,2470.855,13.29,0.03,240.0
2022-04-24T03:55:03,42.805,6.029,-0.047,-0.001,0.027,103.0,102.0,101.0,13.3,1505.2,325.8,-0.8,1.8,2470.793,13.29,0.047,268.8
2022-04-24T03:58:03,42.805,6.029,-0.007,-0.006,0.026,102.0,102.0,101.0,13.4,1505.2,326.7,-0.7,1.8,2470.822,13.29,0.009,229.4
2022-04-24T04:04:03,42.805,6.029,-0.022,0.007,0.024,103.0,104.0,101.0,13.3,1505.2,321.3,-0.8,1.8,2470.892,13.28,0.023,287.6
2022-04-24T04:07:03,42.805,6.029,-0.03,-0.017,0.006,103.0,102.0,101.0,13.4,1505.2,332.8,-0.7,1.8,2470.847,13.29,0.034,240.5
2022-04-24T04:10:03,42.805,6.029,-0.022,-0.011,0.008,104.0,103.0,101.0,13.3,1505.2,323.9,-0.7,1.8,2470.944,13.29,0.024,243.4
2022-04-24T04:13:03,42.805,6.029,-0.026,-0.004,-0.014,102.0,104.0,102.0,13.3,1505.2,325.0,-0.8,1.8,2471.167,13.29,0.026,261.3
2022-04-24T04:16:03,42.805,6.029,-0.035,-0.006,-0.005,104.0,104.0,101.0,13.4,1505.2,324.5,-0.7,1.8,2471.302,13.29,0.035,260.3
2022-04-24T04:19:03,42.805,6.029,-0.031,0.018,0.019,103.0,102.0,101.0,13.4,1505.2,327.1,-0.8,1.8,2471.269,13.29,0.035,300.1
2022-04-24T04:22:03,42.805,6.029,-0.011,-0.002,-0.005,103.0,103.0,102.0,13.3,1505.2,330.9,-0.8,1.8,2471.341,13.29,0.011,259.7
2022-04-24T04:25:03,42.805,6.029,-0.033,0.0,0.02,102.0,102.0,100.0,13.3,1505.2,328.1,-0.8,1.8,2471.358,13.29,0.033,270.0
2022-04-24T04:28:03,42.805,6.029,-0.024,-0.015,-0.018,102.0,103.0,101.0,13.3,1505.2,329.3,-0.8,1.8,2471.451,13.29,0.028,238.0
2022-04-24T04:31:03,42.805,6.029,-0.014,-0.013,0.016,102.0,103.0,101.0,13.3,1505.2,321.6,-0.7,1.9,2471.486,13.29,0.019,227.1
2022-04-24T04:34:03,42.805,6.029,-0.005,-0.016,0.016,105.0,103.0,101.0,13.3,1505.2,325.6,-0.8,1.8,2471.48,13.29,0.016,197.4
2022-04-24T04:37:03,42.805,6.029,-0.036,0.006,-0.005,103.0,101.0,103.0,13.3,1505.2,324.1,-0.8,1.8,2471.467,13.29,0.036,279.5
2022-04-24T04:40:03,42.805,6.029,-0.021,-0.016,-0.022,102.0,105.0,102.0,13.3,1505.2,321.6,-0.7,1.8,2471.312,13.29,0.026,232.7
2022-04-24T04:43:03,42.805,6.029,-0.021,0.005,0.028,102.0,102.0,102.0,13.4,1505.2,329.4,-0.7,1.9,2471.225,13.29,0.021,283.4
2022-04-24T04:46:03,42.805,6.029,-0.035,-0.003,0.013,102.0,103.0,101.0,13.3,1505.2,327.9,-0.8,1.9,2471.048,13.29,0.035,265.1
2022-04-24T04:49:03,42.805,6.029,-0.014,-0.005,0.008,103.0,103.0,102.0,13.4,1505.2,328.5,-0.8,1.8,2470.727,13.29,0.014,250.4
2022-04-24T04:52:03,42.805,6.029,-0.003,-0.002,-0.01,103.0,102.0,102.0,13.4,1505.2,322.8,-0.8,1.8,2470.476,13.29,0.003,236.3
2022-04-24T04:55:03,42.805,6.029,-0.024,-0.002,-0.006,105.0,104.0,103.0,13.4,1505.2,327.4,-0.7,1.8,2470.467,13.29,0.024,265.2
2022-04-24T04:58:03,42.805,6.029,-0.034,0.0,0.014,103.0,103.0,102.0,13.4,1505.2,324.5,-0.7,1.9,2470.473,13.29,0.034,270.0
2022-04-24T05:04:03,42.805,6.029,-0.007,-0.001,-0.006,104.0,101.0,102.0,13.3,1505.2,328.8,-0.8,1.8,2470.547,13.28,0.007,261.9
2022-04-24T05:07:03,42.805,6.029,-0.019,-0.017,0.0,103.0,104.0,101.0,13.3,1505.2,322.2,-0.8,1.8,2470.562,13.28,0.025,228.2
2022-04-24T05:10:03,42.805,6.029,-0.026,-0.019,0.005,103.0,104.0,101.0,13.4,1505.2,332.1,-0.7,1.8,2470.573,13.29,0.032,233.8
2022-04-24T05:13:03,42.805,6.029,-0.029,-0.011,0.037,102.0,105.0,101.0,13.4,1505.2,324.6,-0.7,1.8,2470.608,13.29,0.031,249.2
2022-04-24T05:16:03,42.805,6.029,-0.047,0.0,-0.034,104.0,103.0,101.0,13.3,1505.2,325.1,-0.7,1.8,2470.608,13.29,0.047,270.0
2022-04-24T05:19:03,42.805,6.029,-0.036,-0.004,-0.023,103.0,102.0,101.0,13.4,1505.2,329.1,-0.8,1.8,2470.655,13.29,0.036,263.7
2022-04-24T05:22:03,42.805,6.029,-0.013,0.007,0.012,102.0,102.0,101.0,13.4,1505.2,327.5,-0.7,1.8,2470.695,13.29,0.014,298.3
2022-04-24T05:25:03,42.805,6.029,-0.037,0.016,0.002,102.0,103.0,101.0,13.4,1505.2,327.5,-0.7,1.8,2470.71,13.29,0.04,293.4
2022-04-24T05:28:03,42.805,6.029,-0.029,-0.005,0.012,102.0,103.0,101.0,13.4,1505.2,326.4,-0.8,1.8,2470.678,13.29,0.029,260.2
2022-04-24T05:31:03,42.805,6.029,-0.029,0.006,0.004,104.0,103.0,100.0,13.3,1505.2,332.4,-0.7,1.8,2470.736,13.29,0.029,281.7
2022-04-24T05:34:03,42.805,6.029,-0.035,0.01,0.024,104.0,102.0,102.0,13.4,1505.2,327.4,-0.7,1.8,2470.728,13.29,0.036,285.9
2022-04-24T05:37:03,42.805,6.029,-0.04,-0.012,0.004,103.0,102.0,102.0,13.4,1505.2,322.2,-0.7,1.8,2470.757,13.29,0.041,253.3
2022-04-24T05:40:03,42.805,6.029,-0.03,0.013,0.0,103.0,103.0,102.0,13.4,1505.2,330.2,-0.8,1.8,2470.817,13.29,0.032,293.4
2022-04-24T05:43:03,42.805,6.029,-0.028,0.008,0.009,104.0,103.0,101.0,13.4,1505.2,324.1,-0.8,1.8,2470.791,13.29,0.029,285.9
2022-04-24T05:46:03,42.805,6.029,-0.023,-0.024,0.0,104.0,102.0,101.0,13.3,1505.2,329.5,-0.8,1.9,2470.792,13.29,0.033,223.8
2022-04-24T05:49:03,42.805,6.029,-0.012,-0.011,-0.004,104.0,103.0,101.0,13.4,1505.2,322.5,-0.7,1.8,2470.801,13.29,0.016,227.5
2022-04-24T05:52:03,42.805,6.029,-0.024,0.0,0.016,104.0,103.0,102.0,13.4,1505.2,321.7,-0.8,1.8,2470.902,13.29,0.024,270.0
2022-04-24T05:55:03,42.805,6.029,-0.031,-0.005,-0.039,104.0,102.0,102.0,13.3,1505.2,325.1,-0.8,1.9,2470.783,13.29,0.031,260.8
2022-04-24T05:58:03,42.805,6.029,-0.015,0.006,0.023,103.0,104.0,102.0,13.3,1505.2,330.9,-0.7,1.8,2470.796,13.29,0.016,291.8
2022-04-24T06:04:03,42.805,6.029,-0.024,-0.002,0.0,102.0,103.0,101.0,13.3,1505.2,325.9,-0.7,1.8,2470.768,13.28,0.024,265.2
2022-04-24T06:07:03,42.805,6.029,-0.019,0.012,0.035,102.0,103.0,101.0,13.3,1505.2,325.5,-0.8,1.8,2470.754,13.28,0.022,302.3
2022-04-24T06:10:03,42.805,6.029,-0.04,0.016,0.019,102.0,102.0,102.0,13.3,1505.2,332.0,-0.8,1.8,2470.728,13.29,0.043,291.8
2022-04-24T06:13:03,42.805,6.029,-0.028,-0.011,-0.003,105.0,102.0,102.0,13.4,1505.2,327.4,-0.7,1.8,2470.712,13.29,0.03,248.6
2022-04-24T06:16:03,42.805,6.029,-0.029,-0.018,-0.019,104.0,105.0,101.0,13.4,1505.2,327.2,-0.8,1.8,2470.692,13.29,0.034,238.2
2022-04-24T06:19:03,42.805,6.029,-0.024,0.011,-0.004,104.0,103.0,101.0,13.3,1505.2,328.0,-0.7,1.8,2470.725,13.29,0.026,294.6
2022-04-24T06:22:03,42.805,6.029,-0.035,0.017,-0.009,104.0,102.0,102.0,13.4,1505.2,327.4,-0.7,1.8,2470.724,13.29,0.038,295.9
2022-04-24T06:25:03,42.805,6.029,-0.019,-0.007,0.016,104.0,104.0,102.0,13.4,1505.2,325.6,-0.8,1.8,2470.722,13.29,0.02,249.8
2022-04-24T06:28:03,42.805,6.029,-0.026,0.006,0.001,104.0,104.0,102.0,13.4,1505.2,331.1,-0.8,1.8,2470.744,13.29,0.026,283.0
2022-04-24T06:31:03,42.805,6.029,-0.028,0.018,0.007,103.0,105.0,101.0,13.4,1505.2,330.1,-0.8,1.9,2470.753,13.29,0.033,302.7
2022-04-24T06:34:03,42.805,6.029,-0.057,-0.009,0.0,104.0,102.0,104.0,13.4,1505.2,327.6,-0.8,1.8,2470.764,13.29,0.057,261.0
2022-04-24T06:37:03,42.805,6.029,-0.041,0.004,-0.024,104.0,104.0,103.0,13.3,1505.2,325.4,-0.7,1.8,2470.786,13.29,0.041,275.6
2022-04-24T06:40:03,42.805,6.029,-0.004,0.004,0.017,104.0,104.0,101.0,13.4,1505.2,329.5,-0.8,1.8,2470.817,13.29,0.005,315.0
2022-04-24T06:43:03,42.805,6.029,-0.026,-0.007,-0.01,107.0,104.0,101.0,13.4,1505.2,322.4,-0.8,1.8,2470.713,13.29,0.026,254.9
2022-04-24T06:46:03,42.805,6.029,-0.01,-0.002,-0.002,104.0,103.0,102.0,13.4,1505.2,324.5,-0.8,1.8,2470.731,13.29,0.01,258.7
2022-04-24T06:49:03,42.805,6.029,-0.035,0.005,0.006,105.0,103.0,101.0,13.3,1505.2,331.8,-0.8,1.8,2470.73,13.29,0.035,278.1
2022-04-24T06:52:03,42.805,6.029,-0.036,-0.008,-0.013,105.0,103.0,101.0,13.4,1505.2,329.8,-0.8,1.8,2470.745,13.29,0.036,257.5
2022-04-24T06:55:03,42.805,6.029,-0.026,0.002,0.025,104.0,101.0,102.0,13.3,1505.2,331.1,-0.8,1.8,2470.768,13.29,0.026,274.4
2022-04-24T06:58:03,42.805,6.029,-0.022,0.0,-0.005,101.0,103.0,102.0,13.4,1505.2,321.4,-0.8,1.8,2470.778,13.29,0.022,270.0
2022-04-24T07:04:03,42.805,6.029,-0.019,-0.005,-0.001,103.0,103.0,102.0,13.4,1505.2,324.3,-0.8,1.8,2470.68,13.28,0.019,255.3
2022-04-24T07:07:03,42.805,6.029,-0.022,-0.006,-0.001,103.0,104.0,101.0,13.4,1505.2,330.2,-0.8,1.8,2470.652,13.28,0.022,254.7
2022-04-24T07:10:03,42.805,6.029,-0.016,-0.003,0.0,105.0,103.0,102.0,13.4,1505.2,326.7,-0.8,1.8,2470.674,13.29,0.016,259.4
2022-04-24T07:13:03,42.805,6.029,-0.034,-0.003,-0.021,105.0,104.0,102.0,13.4,1505.2,323.9,-0.8,1.8,2470.638,13.29,0.034,265.0
2022-04-24T07:16:03,42.805,6.029,-0.022,-0.001,-0.002,104.0,102.0,103.0,13.3,1505.2,326.1,-0.7,1.8,2470.68,13.29,0.022,267.4
2022-04-24T07:19:03,42.805,6.029,-0.005,-0.008,-0.009,104.0,103.0,102.0,13.4,1505.2,325.8,-0.7,1.8,2470.688,13.29,0.009,212.0
2022-04-24T07:22:03,42.805,6.029,-0.03,-0.005,0.038,104.0,103.0,101.0,13.4,1505.2,328.2,-0.8,1.8,2470.728,13.29,0.03,260.5
2022-04-24T07:25:03,42.805,6.029,-0.03,0.002,-0.008,104.0,103.0,102.0,13.4,1505.2,321.6,-0.7,1.8,2470.723,13.29,0.03,273.8
2022-04-24T07:28:03,42.805,6.029,-0.015,0.0,0.004,103.0,103.0,102.0,13.4,1505.2,330.9,-0.8,1.8,2470.701,13.29,0.015,270.0
2022-04-24T07:31:03,42.805,6.029,-0.018,0.002,0.022,104.0,104.0,101.0,13.3,1505.2,324.8,-0.7,1.8,2470.681,13.29,0.018,276.3
2022-04-24T07:34:03,42.805,6.029,-0.036,0.013,0.012,103.0,104.0,102.0,13.4,1505.2,332.8,-0.7,1.8,2470.691,13.29,0.038,289.9
2022-04-24T07:37:03,42.805,6.029,-0.033,-0.008,0.004,103.0,102.0,102.0,13.4,1505.2,328.6,-0.7,1.8,2470.67,13.29,0.033,256.4
2022-04-24T07:40:03,42.805,6.029,-0.036,0.019,-0.001,102.0,103.0,101.0,13.4,1505.2,327.6,-0.7,1.8,2470.662,13.29,0.04,297.8
2022-04-24T07:43:03,42.805,6.029,-0.021,-0.007,0.012,102.0,103.0,102.0,13.4,1505.2,331.9,-0.8,1.8,2470.683,13.29,0.022,251.6
2022-04-24T07:46:03,42.805,6.029,-0.027,0.0,0.032,102.0,103.0,102.0,13.4,1505.2,325.5,-0.7,1.8,2470.666,13.29,0.026,270.0
2022-04-24T07:49:03,42.805,6.029,-0.035,0.002,-0.012,103.0,103.0,101.0,13.4,1505.2,326.4,-0.7,1.8,2470.681,13.29,0.035,273.3
2022-04-24T07:52:03,42.805,6.029,-0.037,0.006,-0.019,103.0,102.0,102.0,13.4,1505.2,324.0,-0.8,1.8,2470.661,13.29,0.037,279.2
2022-04-24T07:55:03,42.805,6.029,-0.01,-0.002,-0.006,103.0,103.0,102.0,13.3,1505.2,323.7,-0.7,1.8,2470.631,13.29,0.01,258.7
2022-04-24T07:58:03,42.805,6.029,-0.023,0.021,0.03,104.0,104.0,102.0,13.4,1505.2,331.2,-0.8,1.8,2470.618,13.29,0.031,312.4
2022-04-24T08:04:03,42.805,6.029,-0.015,-0.008,0.021,108.0,102.0,101.0,13.4,1505.2,323.8,-0.8,1.8,2470.677,13.29,0.017,241.9
2022-04-24T08:07:03,42.805,6.029,-0.022,0.003,-0.02,102.0,103.0,101.0,13.3,1505.2,332.1,-0.8,1.8,2470.633,13.29,0.022,277.8
2022-04-24T08:10:03,42.805,6.029,-0.02,0.005,0.003,104.0,104.0,102.0,13.3,1505.2,324.9,-0.7,1.8,2470.671,13.29,0.02,284.0
2022-04-24T08:13:03,42.805,6.029,-0.028,0.023,-0.003,102.0,103.0,100.0,13.4,1505.2,324.5,-0.8,1.8,2470.683,13.29,0.036,309.4
2022-04-24T08:16:03,42.805,6.029,-0.021,0.0,0.0,103.0,102.0,102.0,13.3,1505.2,325.2,-0.8,1.8,2470.703,13.29,0.021,270.0
2022-04-24T08:19:03,42.805,6.029,-0.037,0.003,0.025,104.0,103.0,102.0,13.4,1505.2,327.8,-0.8,1.8,2470.697,13.29,0.037,274.6
2022-04-24T08:22:03,42.805,6.029,-0.026,0.008,0.029,103.0,104.0,102.0,13.3,1505.2,332.4,-0.8,1.8,2470.669,13.29,0.027,287.1
2022-04-24T08:25:03,42.805,6.029,-0.019,0.009,0.007,104.0,103.0,102.0,13.3,1505.2,330.5,-0.8,1.8,2470.687,13.29,0.021,295.3
2022-04-24T08:28:03,42.805,6.029,-0.013,0.005,-0.032,104.0,103.0,102.0,13.4,1505.2,326.3,-0.8,1.8,2470.716,13.29,0.013,291.0
2022-04-24T08:31:03,42.805,6.029,-0.002,0.004,-0.01,102.0,103.0,101.0,13.4,1505.2,328.5,-0.8,1.8,2470.708,13.29,0.004,333.4
2022-04-24T08:34:03,42.805,6.029,-0.009,0.01,0.018,103.0,102.0,101.0,13.4,1505.2,327.9,-0.8,1.8,2470.713,13.29,0.013,318.0
2022-04-24T08:37:03,42.805,6.029,-0.008,-0.015,0.034,103.0,103.0,102.0,13.4,1505.2,321.7,-0.8,1.8,2470.726,13.29,0.017,208.1
2022-04-24T08:40:03,42.805,6.029,-0.03,-0.004,0.022,103.0,103.0,102.0,13.4,1505.2,324.0,-0.7,1.8,2470.716,13.29,0.03,262.4
2022-04-24T08:43:03,42.805,6.029,-0.04,0.02,0.021,103.0,104.0,102.0,13.4,1505.2,331.5,-0.7,1.8,2470.705,13.29,0.044,296.6
2022-04-24T08:46:03,42.805,6.029,-0.023,0.001,0.006,103.0,102.0,102.0,13.4,1505.2,331.7,-0.8,1.8,2470.779,13.29,0.023,272.5
2022-04-24T08:49:03,42.805,6.029,-0.012,-0.017,0.0,102.0,103.0,101.0,13.4,1505.2,324.4,-0.8,1.8,2470.709,13.29,0.02,215.2
2022-04-24T08:52:03,42.805,6.029,-0.019,0.002,-0.002,104.0,101.0,102.0,13.4,1505.2,329.6,-0.8,1.8,2470.681,13.29,0.019,276.0
2022-04-24T08:55:03,42.805,6.029,-0.018,-0.004,0.022,104.0,102.0,101.0,13.4,1505.2,328.0,-0.7,1.8,2470.683,13.29,0.018,257.5
2022-04-24T08:58:03,42.805,6.029,-0.023,0.0,0.026,102.0,104.0,102.0,13.4,1505.2,322.3,-0.8,1.8,2470.653,13.29,0.023,270.0
2022-04-24T09:04:03,42.805,6.029,-0.034,0.001,0.024,105.0,104.0,101.0,13.4,1505.2,324.0,-0.8,1.8,2470.669,13.29,0.034,271.7
2022-04-24T09:07:03,42.805,6.029,-0.018,-0.013,-0.049,104.0,102.0,102.0,13.4,1505.2,326.3,-0.8,1.8,2470.664,13.29,0.022,234.2
2022-04-24T09:10:03,42.805,6.029,-0.045,0.025,0.02,103.0,104.0,102.0,13.4,1505.2,323.8,-0.8,1.8,2470.698,13.29,0.051,299.1
2022-04-24T09:13:03,42.805,6.029,-0.045,0.005,-0.016,102.0,103.0,101.0,13.4,1505.2,323.2,-0.8,1.9,2470.667,13.29,0.045,276.3
2022-04-24T09:16:03,42.805,6.029,-0.039,0.001,0.022,103.0,102.0,101.0,13.4,1505.2,324.0,-0.8,1.8,2470.657,13.29,0.039,271.5
2022-04-24T09:19:03,42.805,6.029,-0.03,-0.003,0.003,102.0,101.0,102.0,13.4,1505.2,332.3,-0.8,1.8,2470.718,13.29,0.03,264.3
2022-04-24T09:22:03,42.805,6.029,-0.036,-0.013,-0.006,102.0,102.0,101.0,13.3,1505.2,331.1,-0.8,1.8,2470.719,13.29,0.038,250.1
2022-04-24T09:25:03,42.805,6.029,-0.03,-0.012,-0.042,103.0,102.0,102.0,13.4,1505.2,327.6,-0.8,1.8,2470.635,13.29,0.032,248.2
2022-04-24T09:28:03,42.805,6.029,-0.03,-0.001,0.018,102.0,103.0,101.0,13.3,1505.2,332.4,-0.7,1.8,2470.647,13.29,0.03,268.1
2022-04-24T09:31:03,42.805,6.029,-0.002,-0.021,-0.012,103.0,102.0,101.0,13.4,1505.2,324.9,-0.7,1.8,2470.635,13.29,0.021,185.4
2022-04-24T09:34:03,42.805,6.029,-0.036,-0.017,-0.007,102.0,102.0,100.0,13.4,1505.2,331.1,-0.8,1.8,2470.594,13.29,0.039,244.7
2022-04-24T09:37:03,42.805,6.029,-0.028,0.01,-0.014,103.0,103.0,101.0,13.4,1505.2,324.6,-0.8,1.8,2470.575,13.29,0.029,289.6
2022-04-24T09:40:03,42.805,6.029,-0.039,0.011,-0.012,103.0,103.0,102.0,13.3,1505.2,331.1,-0.7,1.8,2470.549,13.29,0.04,285.7
2022-04-24T09:43:03,42.805,6.029,-0.024,0.006,-0.001,101.0,103.0,101.0,13.4,1505.2,331.9,-0.7,1.8,2470.568,13.29,0.024,284.0
2022-04-24T09:46:03,42.805,6.029,-0.024,-0.013,0.012,104.0,102.0,102.0,13.4,1505.2,328.8,-0.7,1.8,2470.528,13.29,0.027,241.6
2022-04-24T09:49:03,42.805,6.029,-0.021,0.008,0.015,104.0,103.0,100.0,13.4,1505.2,324.3,-0.7,1.8,2470.518,13.29,0.022,290.9
2022-04-24T09:52:03,42.805,6.029,-0.02,0.004,-0.01,103.0,103.0,101.0,13.4,1505.2,329.3,-0.7,1.8,2470.473,13.29,0.02,281.3
2022-04-24T09:55:03,42.805,6.029,-0.021,-0.012,0.02,103.0,104.0,101.0,13.3,1505.2,322.8,-0.8,1.8,2470.526,13.29,0.024,240.3